Temp
12 12 12 12 12 11 11 10 10 10 10 10 9 9 9 9 9 9 9 9 9 9 9 9 9 9 9 9 9 9 9 9 9 9 9 9 9 9 9 9 9 9 9 9 9 8 8 8 8 8 9 9 9 9 9 9 9 9 8 8 8 8 8 8 8 8 7 7 6 6 6 6 6 5 5 5 5 5 5 5 5 5 5 5 5
12 12 12 12 12 11 11 10 10 10 10 10 9 9 9 9 9 9 9 9 9 9 9 9 9 9 9 9 9 9 9 9 9 9 9 9 9 9 9 9 9 9 9 9 9 8 8 8 8 9 9 9 9 8 8 8 8 8 8 8 8 8 8 8 8 7 7 7 6 6 6 6 5 5 5 5 5 5 5 5 5 5 5 5 5
12 12 12 12 12 11 11 11 10 10 10 10 10 9 9 9 9 9 9 9 9 9 9 9 9 9 9 9 9 9 9 9 9 9 8 8 8 9 9 9 9 9 9 9 9 8 8 8 8 8 9 8 8 8 8 8 8 8 8 8 8 8 8 8 7 7 7 6 6 6 6 5 5 5 5 5 5 5 5 5 5 5 5 5 5
12 12 12 12 12 11 11 11 10 10 10 10 10 10 9 9 9 9 9 9 9 9 9 9 9 9 9 9 9 9 9 9 9 9 8 8 8 8 8 8 9 9 9 9 9 9 8 8 8 8 8 8 8 8 8 8 8 8 8 8 8 7 7 7 7 7 6 6 6 6 6 6 5 5 5 5 5 5 5 5 5 5 5 5 5
12 12 12 12 11 11 11 11 10 10 10 10 10 10 9 9 9 9 9 9 9 9 9 9 9 9 9 9 9 9 9 9 9 9 8 8 8 8 8 8 9 9 9 9 9 9 8 8 8 8 8 8 8 8 8 8 8 8 8 7 7 7 7 7 7 7 6 6 6 6 6 6 6 5 5 5 5 5 5 5 5 5 5 5 5
12 12 12 11 11 11 11 11 10 10 10 10 10 10 10 9 9 9 9 9 9 9 9 9 9 9 9 9 9 9 9 9 9 9 8 8 8 8 8 8 8 8 9 9 9 9 8 8 8 8 8 8 8 8 8 8 8 7 7 7 7 7 7 7 7 6 6 6 6 6 6 6 6 5 5 5 5 5 5 5 5 5 5 5 5
12 12 12 11 11 11 11 11 11 10 10 10 10 10 10 10 9 9 9 9 9 9 9 9 9 9 9 9 9 9 9 9 9 9 9 8 8 8 8 8 8 8 8 8 9 9 8 8 8 8 8 8 8 8 8 7 7 7 7 7 7 7 7 6 6 6 6 6 6 6 6 5 5 5 5 5 5 5 5 5 5 5 5 5 5
12 12 12 12 11 11 11 11 11 10 10 10 10 10 10 10 10 9 9 9 9 9 9 9 9 9 9 9 9 9 9 9 9 9 9 8 8 8 8 8 8 8 8 8 8 8 8 8 8 8 8 8 8 8 8 7 7 7 7 7 7 6 6 6 6 6 6 6 6 6 6 5 5 5 5 5 5 5 5 5 5 5 5 5 5
12 12 12 12 11 11 11 11 11 10 10 10 10 10 10 10 10 10 9 9 9 9 9 9 9 9 9 9 9 9 9 9 9 9 9 8 8 8 8 8 8 8 8 8 8 8 8 8 8 8 8 8 8 7 7 7 7 7 7 7 6 6 6 6 6 6 6 6 6 6 5 5 5 5 5 5 5 5 5 5 5 5 5 5 5
12 12 12 12 11 11 11 11 11 10 10 10 10 10 10 10 10 9 9 9 9 9 9 9 9 9 9 9 9 9 9 9 9 9 8 8 8 8 8 8 8 8 8 8 8 8 8 8 8 8 8 7 7 7 7 7 7 7 6 6 6 6 6 6 6 6 6 5 5 5 5 5 5 5 5 5 5 5 5 5 5 5 5 5 5
11 11 11 11 11 11 11 11 11 10 10 10 10 10 10 10 10 9 9 9 9 9 9 9 9 9 9 9 9 9 9 9 9 8 8 8 8 8 8 8 8 8 8 8 8 8 8 8 8 8 7 7 7 7 7 7 6 6 6 6 6 6 5 5 5 5 5 5 5 5 5 5 5 5 5 5 5 5 5 5 5 5 5 5 5
11 11 11 11 11 11 11 11 11 10 10 10 10 10 10 10 9 9 9 9 9 9 9 9 9 9 9 9 9 9 9 9 8 8 8 8 8 8 8 8 8 8 8 8 8 8 8 8 8 7 7 7 7 7 7 6 6 6 6 6 6 6 5 5 5 5 5 5 5 5 5 5 5 5 5 5 5 5 5 5 5 5 5 5 5
11 11 11 11 11 11 11 10 10 10 10 10 10 10 10 10 9 9 9 9 9 9 9 9 9 9 9 9 9 9 9 8 8 8 8 8 8 8 8 8 8 8 8 8 8 8 8 8 8 7 7 7 7 7 7 6 6 6 6 6 6 5 5 5 5 5 5 5 5 5 5 5 5 5 5 5 5 5 5 5 5 5 5 5 5
11 11 11 11 11 11 10 10 10 10 10 10 10 10 10 10 9 9 9 9 9 9 9 9 9 9 9 9 9 9 9 8 8 8 8 8 8 8 8 8 8 8 8 8 8 8 8 8 8 7 7 7 7 7 6 6 6 6 6 5 5 5 5 5 5 5 5 5 5 5 5 5 5 5 5 5 5 5 5 5 5 5 5 5 5
11 11 11 11 10 11 11 10 10 10 10 10 10 10 10 9 9 9 9 9 9 9 9 9 9 9 9 9 9 8 8 8 8 8 8 8 8 8 8 8 8 7 7 7 7 7 7 7 7 7 7 7 7 6 6 6 6 6 6 5 5 5 5 5 5 5 5 5 5 5 5 5 5 5 5 5 5 5 5 5 5 5 5 5 5
11 11 11 10 10 10 10 10 10 10 10 10 10 10 10 10 10 9 9 9 9 9 9 9 9 9 9 9 8 8 8 8 8 8 8 8 8 8 8 7 7 7 7 7 7 7 7 7 7 7 7 7 7 6 6 6 6 6 6 5 5 5 5 5 5 5 5 5 5 5 5 5 5 5 5 5 5 5 5 5 5 5 5 5 5
11 11 11 11 10 10 10 10 9 9 10 10 10 10 10 10 10 9 9 9 9 9 9 9 8 8 8 8 8 8 8 8 8 8 8 7 7 7 7 7 7 7 7 7 7 7 7 7 7 7 7 7 7 6 6 6 6 6 6 6 6 5 5 6 5 5 5 5 5 5 5 5 5 5 5 5 5 5 5 5 5 5 5 5 5
11 11 11 11 11 10 10 10 9 9 10 10 10 10 10 10 9 9 9 9 9 9 9 8 8 8 8 8 8 8 8 8 8 8 8 7 7 7 7 7 7 7 7 7 7 7 7 7 7 7 7 7 7 6 6 6 6 6 6 6 6 6 6 6 6 6 5 5 5 5 5 5 5 5 5 5 5 5 5 5 5 5 5 5 5
11 11 11 11 11 10 10 9 9 9 9 9 9 9 9 9 9 9 9 9 9 9 8 8 8 8 8 8 8 8 8 8 8 8 7 7 7 7 7 7 7 7 7 7 7 7 7 7 7 7 7 7 6 6 6 6 6 6 6 6 6 6 6 6 5 5 5 5 5 5 5 5 5 5 5 5 5 5 5 5 5 5 5 5 5
11 11 11 11 11 10 10 9 9 9 9 9 9 9 9 9 9 9 9 9 9 8 8 8 8 8 8 8 8 8 8 8 8 7 7 7 7 7 7 7 7 7 7 7 7 7 7 6 7 7 7 6 6 6 6 6 6 6 6 6 6 6 6 6 5 5 5 5 5 5 5 5 5 5 5 5 5 5 4 4 4 4 4 4 4
11 11 10 10 10 10 9 9 9 9 9 9 9 9 9 9 9 9 9 9 8 8 8 8 8 8 8 8 8 8 8 8 7 7 7 7 7 7 7 7 7 7 7 7 7 6 6 6 6 6 6 6 6 6 6 6 6 6 6 6 6 6 6 6 6 5 5 5 5 5 5 5 5 5 5 5 4 4 4 4 4 4 4 4 4
11 10 10 10 10 9 9 9 9 9 9 9 9 9 9 9 9 9 9 8 8 8 8 8 8 8 8 8 8 8 8 7 7 7 7 7 7 7 7 7 7 6 6 6 6 6 6 6 6 6 6 6 6 6 6 6 6 6 6 6 6 5 5 5 5 5 5 5 5 5 5 5 5 5 4 4 4 4 4 4 4 4 4 4 4
10 10 10 10 10 9 9 9 8 9 9 9 9 9 9 9 8 8 8 8 8 8 8 8 8 8 8 8 8 8 7 7 7 7 7 7 7 7 7 7 6 6 6 6 6 6 6 6 6 6 6 6 6 6 6 6 6 5 5 5 5 5 5 5 5 5 5 5 5 4 4 4 4 4 4 4 4 4 4 4 4 4 4 4 4
10 10 10 10 10 10 9 8 8 8 8 8 9 8 8 8 8 8 8 8 8 8 8 8 8 8 8 8 8 7 7 7 7 7 7 7 7 7 7 7 7 6 6 6 6 6 6 6 6 6 6 6 6 5 5 5 5 5 5 5 5 5 5 5 5 5 5 5 4 4 4 4 4 4 4 4 4 4 4 4 4 4 4 4 5
10 10 10 10 10 9 9 9 8 8 8 8 8 8 8 8 8 8 8 8 8 7 7 8 8 8 8 7 7 7 7 7 7 7 7 7 7 7 7 7 7 6 6 6 6 6 6 6 6 6 6 6 6 5 5 5 5 5 5 5 5 5 5 5 5 5 5 5 4 4 4 4 4 4 4 4 4 4 4 4 5 5 5 4 5
10 10 10 10 10 9 9 9 9 8 8 8 8 8 8 8 8 8 7 7 7 7 7 7 8 7 7 7 7 7 7 7 7 7 7 7 6 6 7 7 7 6 6 6 6 6 6 6 6 6 6 5 5 5 5 5 5 5 5 5 5 5 5 5 5 5 5 5 4 4 4 4 4 4 4 4 4 4 4 4 5 5 5 4 5
10 10 10 10 10 9 9 9 8 8 8 8 8 8 7 7 7 7 7 7 7 7 7 7 7 7 7 7 7 7 7 7 7 7 7 6 6 6 6 7 7 6 6 6 6 6 6 5 5 5 5 5 5 5 5 5 5 5 5 5 5 5 5 5 5 5 5 5 5 4 4 4 4 4 4 4 4 4 4 4 5 5 4 4 5
10 10 10 10 9 9 9 8 8 8 8 8 8 8 7 7 7 7 7 7 7 7 7 7 7 7 7 7 6 6 6 6 6 6 6 6 6 6 6 6 6 6 6 6 6 6 6 5 5 5 5 5 5 5 5 5 5 5 5 5 5 5 5 4 4 4 4 4 4 4 4 4 4 4 4 4 4 4 4 4 4 4 4 4 5
9 9 9 9 9 9 8 8 8 8 8 7 7 7 7 7 7 7 7 7 7 7 7 7 7 7 7 6 6 6 6 6 6 6 6 6 6 6 6 6 6 6 6 6 6 6 5 5 5 6 5 5 5 5 5 5 5 5 4 4 4 5 4 4 4 4 5 5 5 5 4 4 4 4 4 4 4 4 4 4 4 4 4 4 4
8 8 9 9 9 8 8 8 8 8 7 7 7 7 7 7 7 7 7 7 7 7 7 7 7 7 6 6 6 6 6 6 6 6 6 6 6 6 6 6 6 6 6 6 6 5 6 6 6 5 5 5 5 5 5 5 5 5 5 5 5 5 5 5 5 5 5 5 5 5 5 5 5 4 4 4 4 4 4 4 3 4 4 4 4
8 8 8 8 8 8 8 8 8 8 8 8 7 7 7 7 7 7 6 6 7 7 7 7 7 6 6 6 6 6 6 6 6 6 6 6 6 6 6 6 5 5 5 5 5 6 6 6 6 5 5 5 5 5 5 5 5 5 5 5 5 5 5 5 5 5 5 5 5 5 5 5 4 4 4 4 4 4 4 4 4 4 4 4 4
8 8 8 8 8 8 8 8 8 8 8 7 7 7 7 7 7 7 6 6 7 7 7 7 6 6 6 6 6 6 6 6 7 6 6 6 6 5 5 5 5 5 5 5 5 5 6 5 5 5 5 5 5 5 5 5 5 5 5 5 5 6 6 6 6 5 5 5 5 5 5 5 5 4 4 4 4 4 4 4 3 3 3 4 4
8 8 8 8 7 8 8 8 8 7 7 7 7 7 7 7 7 6 6 7 7 7 7 7 6 6 6 6 6 6 6 6 6 6 6 5 5 5 5 5 5 5 5 5 5 5 5 5 5 5 5 5 5 5 5 5 5 5 5 5 5 5 5 5 5 5 5 5 5 5 5 5 5 4 4 4 4 4 4 3 3 3 3 3 3
8 8 8 7 7 8 8 8 7 7 7 7 7 7 7 7 6 6 7 7 7 7 6 6 6 6 6 6 6 6 6 6 6 6 6 5 5 5 5 5 5 5 5 5 6 6 6 5 5 5 5 5 5 5 5 5 5 5 5 5 5 5 5 5 5 5 5 5 5 5 5 5 5 4 4 4 4 4 4 4 3 4 4 3 3
8 8 7 7 7 8 7 7 7 7 6 6 7 7 7 7 7 7 7 7 6 6 6 6 6 6 6 6 6 6 6 6 6 6 6 5 5 5 5 5 5 5 6 6 6 6 6 6 6 5 5 5 5 5 5 5 5 5 5 5 5 5 5 5 5 5 5 5 5 5 5 5 5 4 4 4 4 4 4 4 4 3 3 3 3
8 7 7 7 8 7 7 7 7 7 6 6 6 7 7 7 7 7 7 6 6 6 6 6 6 6 6 6 6 5 6 6 6 6 6 5 5 5 5 5 5 6 6 6 6 6 6 6 6 5 5 5 5 5 5 5 5 5 5 5 5 5 5 5 5 5 5 5 5 5 5 5 5 4 4 4 4 4 4 4 4 3 3 3 3
7 7 7 7 7 7 7 7 7 7 6 6 6 7 7 7 7 7 7 6 6 6 6 6 6 6 6 6 5 5 5 6 6 6 6 5 5 5 5 5 5 6 6 6 6 6 6 6 6 5 5 5 5 5 5 5 6 6 6 6 5 5 5 5 5 5 5 5 5 5 5 5 4 4 4 4 4 4 4 4 4 3 3 3 3
7 7 7 7 7 7 7 6 7 7 6 6 6 6 7 7 6 6 6 6 6 6 6 6 6 6 6 5 5 5 5 6 6 5 5 5 5 5 5 5 5 6 6 6 6 6 6 6 6 6 6 5 5 5 5 6 6 6 6 6 6 5 5 5 5 5 5 5 5 5 5 5 4 4 4 4 4 4 4 4 4 3 3 3 3
7 7 7 7 7 7 7 7 6 6 6 6 6 7 6 6 6 6 6 6 6 6 6 6 6 6 6 5 5 5 5 5 5 5 5 5 5 5 5 5 5 6 6 6 6 6 6 6 6 6 6 6 5 5 5 6 6 6 6 6 5 5 5 5 5 5 5 5 5 5 5 5 5 4 4 4 4 4 4 4 4 4 4 3 3
7 7 6 7 7 7 7 7 6 6 6 6 7 7 6 6 6 6 6 6 6 6 6 6 5 5 6 5 5 5 6 6 5 5 5 5 5 5 5 5 5 6 6 6 6 7 7 7 6 6 6 6 6 5 5 5 6 6 6 5 5 5 5 6 6 5 5 5 5 5 5 5 5 5 4 4 4 4 4 4 4 4 4 4 4
6 6 6 6 7 7 7 6 6 6 6 6 6 6 6 6 6 6 5 6 6 6 6 6 5 5 5 5 5 5 6 6 5 5 5 5 5 5 5 6 6 6 6 7 7 7 7 7 7 6 6 6 6 6 5 5 5 5 5 5 5 5 6 6 6 6 5 5 5 5 5 5 5 5 4 4 4 4 4 4 4 4 4 4 4
6 6 6 6 7 7 7 6 6 6 6 6 6 6 6 6 6 6 5 6 6 6 5 5 5 5 5 5 5 5 6 6 5 5 5 5 5 5 6 6 6 6 6 7 7 7 7 7 7 6 6 6 6 6 6 5 5 5 5 5 5 5 5 5 5 5 5 5 5 5 5 5 5 4 4 4 4 4 4 4 4 4 4 4 4
6 6 6 6 7 7 7 6 6 6 6 6 6 6 5 6 6 6 5 6 6 5 5 5 5 5 5 5 5 5 5 6 6 6 6 6 6 6 6 6 6 6 6 7 7 7 7 7 7 7 6 6 6 6 6 5 5 5 5 5 5 5 5 5 5 5 5 5 5 5 5 4 4 4 4 4 4 4 4 4 4 4 4 4 4
6 6 6 7 7 7 7 6 6 6 5 5 5 5 6 6 6 5 5 6 6 5 5 5 5 5 5 5 5 5 6 6 6 6 6 6 6 6 6 6 6 6 6 7 7 7 7 7 7 6 6 6 6 6 5 5 5 5 5 5 5 5 5 5 5 5 5 5 5 5 4 4 4 4 4 4 4 3 3 3 3 3 3 3 3
6 7 7 7 7 7 6 6 6 5 5 5 5 5 6 6 5 5 5 6 6 5 5 5 5 5 5 5 5 5 6 6 6 6 6 6 6 6 6 6 6 6 6 6 6 6 6 6 6 6 6 6 6 6 5 5 5 5 5 5 5 5 5 5 5 5 5 4 4 4 4 4 4 4 3 3 3 3 3 3 3 3 3 3 3
7 7 7 6 6 6 6 6 6 5 5 5 5 6 6 5 5 5 5 5 5 5 5 5 5 5 5 5 5 5 5 5 6 6 6 6 6 6 6 6 6 6 6 6 6 6 6 6 6 6 6 6 6 5 5 5 5 5 5 5 5 5 5 5 5 5 4 4 4 4 4 4 3 3 3 3 3 2 2 2 2 2 3 3 3
7 7 6 6 6 6 6 5 5 5 5 5 5 5 5 5 5 5 5 5 5 5 5 5 5 5 5 5 5 5 5 5 5 6 6 6 6 6 6 6 6 6 6 6 6 6 6 6 6 6 5 5 5 5 5 5 5 5 5 5 5 5 5 5 5 5 4 4 3 3 3 3 3 3 2 2 2 2 2 2 2 2 2 3 3
7 6 6 6 6 6 5 5 5 5 5 5 5 5 5 4 4 4 5 5 5 5 5 5 5 5 5 5 5 5 5 5 6 6 6 6 6 6 6 6 6 6 6 6 6 6 6 5 5 5 5 5 5 5 5 5 5 5 5 5 5 5 5 5 5 4 4 4 3 3 3 2 2 2 2 2 2 2 2 2 2 2 2 2 2
6 6 6 6 6 6 6 5 5 5 5 5 5 5 4 4 4 4 5 5 5 5 4 4 5 5 5 5 5 5 5 5 5 6 6 6 6 6 6 6 6 6 6 6 5 5 5 5 5 5 5 5 5 5 5 5 4 4 5 5 5 5 5 4 4 4 4 3 3 3 2 2 2 2 2 2 2 2 2 2 2 2 2 2 2
6 6 6 6 6 6 6 5 5 5 5 5 5 5 4 4 4 4 5 5 5 4 4 4 5 5 5 5 5 5 5 5 5 5 6 6 6 6 6 6 6 5 5 5 5 5 5 5 5 5 5 5 5 5 4 4 4 4 4 4 4 4 4 4 4 3 3 3 2 2 2 2 2 2 2 2 2 2 1 1 1 1 1 1 1
6 6 6 6 6 6 5 5 5 5 5 5 4 4 4 4 4 4 5 5 5 4 4 4 5 5 5 5 5 5 5 5 5 5 5 6 6 5 5 5 5 5 5 5 5 5 5 5 5 5 4 4 4 4 4 4 4 4 4 4 4 4 4 3 3 3 3 2 2 2 2 2 2 1 1 1 1 1 1 1 1 1 1 1 1
Height
3176 3176 3177 3177 3177 3178 3178 3180 3181 3182 3182 3182 3183 3184 3184 3184 3184 3185 3185 3185 3185 3184 3184 3183 3183 3182 3182 3181 3181 3181 3181 3180 3179 3179 3178 3178 3177 3177 3176 3176 3175 3174 3174 3174 3173 3173 3173 3173 3173 3172 3172 3172 3172 3172 3172 3173 3173 3173 3173 3173 3173 3173 3173 3173 3173 3173 3173 3173 3174 3174 3174 3175 3175 3175 3175 3175 3175 3174 3174 3174 3174 3174 3174 3173 3173
3177 3177 3177 3177 3177 3178 3178 3180 3181 3182 3182 3183 3184 3184 3184 3184 3184 3185 3185 3185 3185 3185 3184 3184 3183 3183 3182 3182 3182 3182 3181 3181 3180 3179 3179 3179 3178 3178 3177 3177 3176 3175 3175 3174 3174 3174 3174 3174 3174 3173 3173 3173 3173 3173 3173 3173 3174 3174 3174 3174 3174 3174 3174 3174 3174 3174 3174 3174 3175 3175 3175 3176 3176 3176 3176 3176 3176 3175 3175 3175 3175 3175 3174 3174 3174
3176 3177 3177 3177 3177 3178 3179 3180 3181 3182 3182 3183 3184 3184 3184 3184 3185 3185 3186 3186 3186 3186 3185 3184 3184 3183 3183 3182 3182 3182 3182 3181 3180 3180 3180 3179 3179 3179 3178 3178 3177 3176 3176 3175 3175 3175 3175 3175 3174 3174 3174 3174 3174 3174 3174 3174 3174 3174 3175 3175 3175 3175 3175 3175 3175 3175 3175 3176 3176 3176 3176 3176 3176 3177 3177 3177 3177 3176 3176 3176 3176 3175 3175 3175 3174
3176 3177 3177 3177 3177 3178 3179 3180 3181 3182 3182 3183 3184 3184 3184 3184 3185 3185 3186 3186 3186 3186 3186 3185 3184 3184 3183 3183 3182 3182 3182 3182 3181 3181 3180 3180 3180 3179 3179 3178 3178 3177 3177 3176 3176 3175 3175 3175 3175 3175 3175 3175 3175 3175 3175 3175 3175 3175 3176 3176 3176 3176 3176 3176 3176 3176 3176 3177 3177 3177 3177 3177 3177 3177 3177 3177 3177 3177 3177 3177 3176 3176 3176 3175 3175
3176 3176 3177 3177 3177 3178 3179 3180 3181 3182 3182 3183 3184 3184 3184 3184 3185 3185 3186 3186 3186 3186 3186 3185 3185 3184 3184 3183 3183 3183 3183 3182 3182 3181 3181 3181 3180 3180 3180 3179 3179 3178 3178 3177 3176 3176 3176 3176 3176 3176 3176 3176 3176 3176 3176 3176 3176 3176 3176 3177 3177 3177 3177 3177 3177 3177 3177 3178 3178 3178 3178 3178 3178 3178 3178 3178 3178 3178 3178 3177 3177 3177 3176 3176 3175
3176 3176 3177 3177 3177 3178 3179 3180 3180 3181 3182 3183 3183 3184 3184 3184 3185 3185 3186 3186 3186 3187 3186 3186 3185 3185 3184 3183 3183 3183 3183 3183 3182 3182 3181 3181 3181 3181 3180 3180 3179 3179 3178 3178 3177 3177 3176 3176 3176 3176 3176 3176 3176 3176 3177 3177 3177 3177 3177 3177 3177 3178 3178 3178 3178 3178 3178 3179 3179 3179 3179 3179 3179 3179 3179 3179 3179 3178 3178 3178 3177 3177 3177 3176 3176
3176 3176 3176 3177 3177 3178 3179 3179 3180 3181 3182 3182 3183 3183 3184 3184 3185 3185 3186 3186 3186 3187 3186 3186 3186 3185 3184 3184 3183 3183 3183 3183 3182 3182 3182 3181 3181 3181 3181 3180 3180 3179 3179 3178 3178 3177 3177 3177 3177 3177 3177 3177 3177 3177 3177 3178 3178 3178 3178 3178 3178 3178 3179 3179 3179 3179 3179 3180 3180 3180 3180 3180 3180 3180 3180 3179 3179 3179 3179 3178 3178 3177 3177 3176 3176
3175 3176 3176 3176 3177 3178 3178 3179 3180 3180 3181 3182 3182 3183 3183 3184 3185 3185 3185 3186 3186 3187 3186 3186 3186 3185 3185 3184 3184 3184 3184 3183 3183 3182 3182 3181 3181 3181 3181 3181 3180 3180 3179 3179 3178 3178 3178 3178 3178 3178 3178 3178 3178 3178 3178 3178 3179 3179 3179 3179 3179 3179 3180 3180 3180 3180 3180 3180 3181 3181 3181 3181 3181 3180 3180 3180 3180 3179 3179 3179 3178 3178 3177 3177 3176
3175 3175 3176 3176 3176 3177 3178 3178 3179 3180 3181 3182 3182 3183 3183 3184 3184 3185 3185 3186 3186 3186 3186 3186 3186 3185 3185 3184 3184 3184 3184 3184 3183 3183 3182 3182 3181 3181 3181 3181 3181 3180 3180 3179 3179 3179 3178 3178 3178 3178 3178 3178 3178 3178 3179 3179 3179 3180 3180 3180 3180 3180 3180 3180 3181 3181 3181 3181 3181 3181 3181 3181 3181 3181 3180 3180 3180 3180 3179 3179 3178 3178 3177 3177 3176
3175 3175 3176 3176 3176 3177 3177 3178 3179 3180 3181 3182 3182 3183 3183 3184 3184 3185 3185 3185 3186 3186 3186 3186 3186 3185 3185 3185 3184 3184 3184 3184 3183 3183 3182 3182 3182 3182 3181 3181 3181 3181 3180 3180 3180 3179 3179 3179 3179 3179 3179 3179 3179 3179 3179 3180 3180 3180 3180 3181 3181 3181 3181 3181 3181 3181 3181 3181 3182 3182 3182 3181 3181 3181 3181 3180 3180 3180 3179 3178 3178 3177 3177 3176 3176
3175 3176 3176 3176 3177 3177 3177 3178 3179 3180 3181 3182 3182 3183 3183 3184 3184 3184 3184 3185 3185 3185 3185 3185 3186 3186 3185 3185 3185 3184 3184 3184 3183 3183 3182 3182 3182 3182 3182 3181 3181 3181 3181 3181 3180 3180 3180 3179 3179 3179 3179 3179 3179 3180 3180 3180 3180 3180 3181 3181 3181 3181 3181 3181 3181 3181 3181 3182 3182 3182 3182 3182 3182 3181 3181 3180 3180 3179 3179 3178 3178 3177 3177 3176 3175
3175 3176 3176 3176 3177 3177 3177 3178 3179 3180 3181 3181 3182 3182 3183 3183 3184 3184 3184 3184 3185 3185 3185 3186 3186 3186 3185 3185 3185 3184 3184 3184 3183 3183 3183 3182 3182 3182 3182 3182 3181 3181 3181 3181 3181 3181 3180 3180 3180 3180 3180 3180 3180 3180 3180 3180 3181 3181 3181 3181 3181 3181 3182 3182 3182 3182 3182 3181 3181 3182 3182 3182 3181 3181 3181 3181 3180 3179 3179 3178 3177 3177 3176 3175 3174
3175 3175 3175 3176 3176 3177 3177 3178 3179 3179 3180 3181 3181 3182 3182 3183 3183 3183 3184 3184 3184 3185 3185 3186 3186 3186 3185 3185 3184 3184 3184 3184 3183 3183 3183 3182 3182 3182 3182 3182 3182 3182 3182 3181 3181 3181 3181 3180 3180 3180 3180 3180 3181 3181 3181 3181 3181 3181 3182 3182 3182 3182 3182 3182 3182 3182 3181 3181 3181 3181 3181 3181 3181 3181 3181 3180 3180 3179 3178 3177 3177 3176 3175 3174 3173
3174 3174 3174 3175 3175 3176 3177 3177 3177 3178 3179 3180 3180 3181 3181 3182 3182 3183 3183 3184 3184 3185 3185 3186 3186 3186 3185 3185 3184 3184 3184 3184 3183 3183 3183 3182 3182 3182 3182 3182 3182 3182 3182 3182 3182 3181 3181 3181 3181 3181 3181 3181 3181 3181 3182 3182 3182 3182 3182 3182 3182 3182 3182 3182 3181 3181 3181 3181 3181 3181 3181 3181 3181 3181 3180 3180 3179 3178 3177 3177 3176 3175 3174 3173 3172
3173 3174 3173 3174 3174 3174 3175 3175 3176 3177 3178 3179 3179 3180 3180 3181 3182 3182 3183 3183 3184 3185 3186 3186 3186 3186 3185 3185 3184 3184 3184 3184 3183 3183 3183 3182 3182 3182 3182 3182 3182 3182 3182 3182 3182 3182 3181 3181 3181 3181 3181 3181 3182 3182 3182 3182 3183 3183 3183 3183 3182 3182 3182 3182 3181 3181 3181 3181 3181 3181 3181 3181 3180 3180 3180 3179 3178 3178 3177 3176 3175 3174 3173 3172 3171
3173 3173 3172 3172 3172 3172 3173 3173 3174 3175 3177 3178 3179 3179 3180 3181 3181 3182 3182 3183 3184 3185 3186 3186 3185 3185 3185 3184 3184 3184 3184 3184 3184 3183 3183 3182 3182 3182 3182 3182 3182 3182 3182 3182 3183 3182 3182 3182 3181 3181 3182 3182 3182 3182 3183 3183 3183 3183 3183 3183 3183 3183 3182 3182 3182 3181 3181 3181 3181 3180 3180 3180 3180 3179 3179 3178 3177 3177 3176 3175 3173 3172 3171 3170 3169
3172 3171 3170 3170 3170 3171 3171 3172 3173 3175 3176 3177 3178 3179 3179 3180 3181 3181 3182 3183 3184 3185 3185 3185 3185 3185 3184 3184 3183 3183 3183 3183 3183 3183 3183 3182 3182 3181 3181 3181 3181 3182 3182 3182 3183 3183 3182 3182 3182 3182 3182 3182 3182 3182 3182 3183 3183 3183 3183 3183 3183 3183 3183 3182 3182 3181 3181 3181 3180 3180 3180 3179 3179 3178 3178 3177 3176 3175 3174 3173 3172 3171 3170 3168 3167
3170 3170 3169 3169 3169 3170 3171 3172 3174 3175 3176 3177 3177 3178 3179 3180 3180 3181 3182 3182 3183 3184 3184 3184 3184 3184 3184 3183 3183 3183 3183 3183 3183 3183 3182 3182 3181 3181 3181 3181 3181 3181 3182 3182 3182 3183 3183 3183 3182 3182 3182 3182 3182 3182 3182 3183 3183 3183 3183 3183 3183 3183 3183 3182 3182 3181 3181 3181 3180 3180 3179 3179 3178 3178 3177 3176 3175 3174 3173 3171 3170 3169 3168 3167 3166
3169 3169 3169 3169 3169 3170 3171 3172 3173 3174 3175 3176 3177 3178 3179 3179 3180 3181 3181 3182 3182 3183 3184 3184 3183 3183 3183 3182 3182 3182 3182 3182 3182 3182 3182 3182 3181 3181 3181 3181 3181 3181 3181 3182 3182 3182 3183 3183 3182 3182 3182 3182 3182 3182 3182 3183 3183 3183 3183 3183 3183 3182 3182 3182 3182 3181 3181 3180 3180 3179 3179 3178 3177 3176 3175 3174 3174 3173 3171 3170 3169 3167 3166 3165 3165
3168 3169 3169 3169 3169 3169 3170 3171 3172 3173 3174 3175 3176 3177 3178 3179 3180 3180 3181 3181 3182 3183 3183 3183 3183 3182 3182 3182 3182 3182 3182 3182 3182 3182 3182 3182 3181 3181 3181 3181 3181 3181 3181 3181 3182 3182 3182 3182 3182 3182 3182 3182 3182 3182 3182 3182 3182 3183 3183 3183 3183 3182 3182 3181 3181 3181 3180 3180 3179 3178 3178 3177 3176 3175 3174 3173 3172 3171 3170 3169 3167 3166 3165 3164 3164
3168 3168 3168 3168 3167 3168 3169 3170 3171 3173 3173 3174 3176 3177 3178 3179 3179 3180 3180 3181 3181 3182 3182 3182 3182 3182 3182 3181 3181 3181 3181 3181 3182 3182 3182 3181 3181 3181 3181 3181 3180 3181 3181 3181 3181 3181 3182 3182 3182 3182 3182 3182 3182 3182 3182 3182 3182 3182 3182 3182 3182 3182 3181 3181 3180 3180 3179 3179 3178 3178 3177 3176 3175 3174 3173 3172 3171 3170 3169 3167 3166 3165 3164 3163 3162
3166 3166 3166 3166 3166 3167 3168 3169 3171 3172 3173 3174 3175 3176 3177 3177 3178 3179 3179 3180 3180 3181 3181 3181 3181 3181 3181 3181 3181 3181 3181 3181 3181 3181 3181 3181 3181 3181 3181 3181 3180 3180 3180 3181 3181 3181 3181 3182 3182 3182 3182 3182 3182 3182 3182 3182 3182 3182 3182 3182 3182 3182 3181 3180 3179 3179 3178 3178 3177 3177 3176 3175 3174 3173 3171 3170 3169 3168 3167 3166 3165 3164 3163 3162 3161
3165 3165 3165 3165 3165 3166 3167 3168 3170 3171 3172 3173 3174 3175 3176 3176 3177 3177 3178 3179 3180 3180 3181 3181 3181 3181 3181 3181 3181 3181 3181 3181 3181 3181 3181 3181 3180 3180 3180 3180 3180 3180 3180 3180 3180 3180 3181 3181 3181 3181 3181 3181 3181 3181 3181 3181 3181 3181 3181 3181 3181 3181 3180 3179 3178 3178 3177 3177 3176 3175 3174 3173 3172 3171 3170 3168 3167 3166 3166 3165 3163 3162 3162 3160 3159
3165 3164 3164 3165 3165 3166 3166 3168 3170 3171 3172 3173 3174 3174 3175 3175 3176 3176 3177 3178 3179 3180 3180 3180 3180 3180 3180 3180 3180 3180 3180 3180 3180 3180 3180 3180 3180 3180 3180 3180 3180 3180 3180 3180 3180 3180 3180 3181 3181 3181 3181 3181 3181 3181 3181 3180 3180 3180 3180 3180 3180 3179 3179 3179 3178 3177 3176 3176 3175 3174 3173 3172 3171 3169 3168 3167 3166 3165 3164 3163 3163 3162 3161 3159 3157
3164 3164 3164 3164 3165 3165 3166 3168 3169 3171 3172 3172 3173 3174 3174 3175 3175 3176 3177 3178 3178 3179 3179 3179 3180 3179 3179 3179 3180 3180 3180 3180 3180 3179 3179 3179 3179 3179 3179 3179 3179 3179 3179 3179 3179 3179 3180 3180 3181 3181 3181 3181 3180 3180 3180 3179 3179 3179 3179 3178 3178 3178 3178 3177 3177 3176 3175 3175 3174 3172 3171 3170 3169 3168 3166 3165 3164 3163 3163 3162 3162 3161 3159 3157 3155
3163 3163 3163 3163 3164 3164 3166 3167 3169 3170 3171 3171 3172 3173 3174 3174 3175 3176 3176 3177 3178 3178 3178 3179 3178 3178 3178 3179 3179 3179 3179 3179 3179 3179 3179 3179 3179 3178 3178 3178 3179 3179 3179 3179 3179 3179 3179 3180 3180 3180 3180 3180 3180 3179 3179 3179 3178 3178 3178 3177 3177 3177 3176 3176 3175 3175 3174 3173 3172 3171 3170 3169 3168 3166 3165 3164 3163 3162 3161 3159 3160 3160 3158 3155 3154
3163 3163 3162 3162 3162 3163 3164 3166 3167 3168 3169 3170 3171 3172 3173 3174 3174 3175 3176 3176 3176 3177 3177 3177 3177 3177 3178 3178 3178 3178 3178 3178 3178 3178 3178 3178 3178 3178 3178 3178 3178 3179 3178 3178 3178 3178 3179 3179 3180 3180 3180 3180 3179 3179 3179 3178 3178 3177 3177 3176 3176 3176 3175 3174 3174 3173 3172 3171 3170 3169 3168 3167 3166 3164 3163 3162 3161 3160 3158 3157 3158 3158 3156 3154 3153
3162 3162 3162 3161 3161 3162 3163 3165 3166 3167 3168 3169 3170 3171 3172 3173 3173 3174 3175 3175 3175 3176 3176 3176 3176 3177 3177 3177 3177 3177 3177 3177 3177 3177 3177 3178 3178 3178 3178 3177 3177 3178 3178 3178 3178 3178 3178 3179 3179 3179 3180 3179 3179 3178 3178 3178 3177 3177 3176 3175 3175 3174 3174 3173 3172 3172 3171 3170 3169 3168 3167 3165 3164 3163 3162 3161 3159 3158 3157 3156 3157 3158 3155 3153 3152
3161 3161 3161 3161 3161 3162 3163 3164 3165 3166 3167 3168 3169 3170 3171 3172 3172 3173 3174 3174 3175 3175 3175 3175 3176 3176 3176 3176 3176 3177 3177 3177 3177 3177 3177 3177 3177 3178 3178 3178 3177 3178 3178 3178 3178 3178 3178 3178 3178 3179 3179 3178 3178 3178 3177 3177 3176 3175 3175 3174 3174 3173 3172 3172 3171 3170 3170 3169 3168 3167 3165 3164 3162 3161 3160 3159 3158 3157 3156 3155 3156 3157 3155 3153 3152
3159 3159 3161 3162 3162 3162 3163 3164 3164 3165 3166 3167 3167 3169 3170 3171 3171 3172 3173 3173 3174 3174 3174 3175 3175 3174 3175 3175 3176 3176 3176 3176 3176 3176 3176 3176 3177 3177 3178 3178 3177 3177 3178 3178 3178 3178 3178 3178 3178 3178 3178 3178 3177 3177 3176 3175 3175 3174 3174 3173 3173 3172 3171 3171 3170 3169 3168 3167 3166 3165 3163 3162 3161 3160 3159 3158 3157 3156 3155 3154 3155 3155 3154 3152 3151
3158 3158 3160 3162 3162 3163 3163 3163 3164 3164 3165 3166 3167 3168 3169 3170 3170 3171 3172 3172 3172 3173 3173 3173 3174 3174 3174 3175 3175 3176 3176 3176 3176 3176 3176 3176 3176 3177 3177 3177 3177 3177 3177 3177 3177 3177 3177 3177 3177 3177 3177 3177 3177 3176 3175 3175 3174 3173 3173 3172 3172 3171 3171 3170 3169 3168 3167 3166 3165 3164 3162 3161 3160 3159 3158 3157 3156 3155 3154 3153 3153 3153 3153 3151 3150
3158 3158 3159 3160 3161 3162 3162 3163 3163 3164 3164 3165 3166 3167 3168 3169 3169 3170 3171 3171 3172 3172 3172 3173 3173 3173 3174 3174 3175 3176 3176 3176 3176 3175 3175 3176 3176 3176 3176 3176 3176 3177 3177 3177 3177 3177 3177 3177 3177 3177 3177 3177 3176 3176 3175 3174 3173 3173 3173 3172 3172 3171 3171 3170 3169 3168 3167 3165 3164 3163 3162 3160 3159 3158 3157 3156 3154 3153 3152 3152 3151 3151 3151 3150 3149
3157 3157 3158 3159 3160 3161 3161 3162 3162 3163 3163 3164 3165 3166 3167 3168 3168 3169 3169 3170 3171 3171 3172 3172 3172 3173 3173 3174 3175 3175 3175 3175 3175 3175 3175 3175 3175 3175 3175 3176 3176 3176 3176 3176 3176 3176 3176 3176 3177 3177 3176 3176 3176 3175 3174 3173 3173 3172 3172 3172 3171 3170 3170 3169 3168 3167 3165 3164 3163 3161 3160 3159 3157 3156 3155 3154 3153 3152 3151 3150 3149 3149 3148 3148 3147
3155 3156 3157 3158 3159 3160 3160 3161 3162 3162 3163 3164 3165 3165 3166 3167 3167 3168 3168 3169 3170 3171 3171 3171 3172 3172 3173 3174 3174 3175 3175 3175 3175 3175 3175 3175 3175 3175 3175 3175 3176 3176 3176 3176 3176 3176 3176 3176 3176 3176 3176 3176 3175 3174 3173 3172 3172 3172 3171 3171 3170 3169 3168 3167 3166 3165 3164 3162 3161 3160 3159 3157 3156 3155 3154 3152 3151 3150 3149 3148 3148 3147 3146 3145 3145
3154 3155 3156 3157 3158 3159 3159 3160 3161 3161 3162 3163 3164 3164 3165 3165 3166 3167 3168 3169 3169 3170 3170 3170 3171 3172 3173 3173 3174 3174 3174 3174 3175 3175 3174 3175 3175 3175 3175 3175 3175 3176 3176 3176 3176 3176 3175 3175 3175 3175 3175 3175 3174 3173 3172 3171 3171 3171 3170 3169 3169 3168 3167 3166 3165 3163 3162 3161 3160 3159 3157 3156 3155 3154 3153 3151 3150 3148 3147 3146 3145 3145 3144 3143 3142
3154 3154 3155 3156 3157 3158 3158 3159 3160 3160 3161 3162 3163 3163 3164 3164 3165 3166 3167 3168 3169 3169 3170 3170 3171 3172 3173 3173 3173 3174 3174 3174 3175 3175 3174 3174 3175 3175 3175 3175 3175 3175 3175 3175 3175 3175 3175 3175 3174 3174 3174 3174 3173 3173 3172 3171 3170 3170 3170 3169 3168 3167 3166 3165 3164 3163 3162 3161 3159 3158 3156 3155 3154 3152 3151 3150 3148 3147 3145 3144 3143 3142 3141 3140 3139
3152 3153 3154 3155 3156 3157 3157 3158 3158 3159 3160 3161 3162 3162 3162 3163 3164 3165 3166 3167 3168 3169 3169 3170 3171 3172 3172 3173 3173 3173 3174 3174 3175 3175 3174 3174 3174 3175 3175 3175 3175 3175 3175 3175 3175 3175 3174 3174 3174 3174 3173 3173 3173 3172 3172 3171 3170 3170 3169 3169 3168 3167 3166 3165 3164 3162 3161 3160 3158 3156 3155 3153 3152 3151 3149 3148 3147 3146 3144 3142 3141 3140 3139 3138 3137
3150 3151 3152 3153 3154 3155 3156 3156 3157 3158 3159 3160 3160 3161 3161 3162 3163 3164 3165 3166 3167 3168 3169 3170 3171 3171 3172 3172 3172 3173 3173 3174 3174 3174 3174 3174 3174 3175 3175 3175 3175 3175 3174 3174 3174 3174 3174 3174 3174 3173 3173 3173 3173 3172 3171 3170 3170 3170 3169 3169 3168 3167 3166 3164 3163 3161 3160 3158 3157 3155 3153 3152 3150 3149 3147 3146 3145 3144 3143 3141 3139 3137 3136 3135 3134
3149 3150 3151 3152 3152 3153 3154 3155 3155 3156 3157 3158 3159 3160 3161 3161 3162 3163 3164 3165 3167 3168 3169 3170 3170 3170 3171 3171 3171 3172 3173 3174 3174 3174 3174 3173 3174 3174 3174 3175 3174 3174 3174 3173 3173 3173 3173 3173 3173 3173 3173 3173 3172 3172 3171 3170 3169 3169 3168 3168 3167 3166 3164 3163 3162 3160 3159 3157 3155 3153 3152 3150 3148 3147 3145 3144 3142 3141 3141 3139 3137 3135 3133 3132 3131
3147 3148 3148 3149 3151 3151 3152 3153 3152 3154 3155 3157 3158 3159 3160 3161 3161 3162 3164 3165 3167 3168 3169 3169 3169 3170 3170 3170 3171 3172 3173 3173 3173 3173 3173 3173 3174 3174 3174 3174 3174 3174 3173 3173 3173 3173 3173 3173 3173 3173 3173 3173 3172 3172 3170 3169 3169 3168 3168 3167 3166 3165 3164 3162 3160 3159 3157 3156 3154 3152 3150 3148 3146 3145 3143 3141 3140 3138 3138 3137 3135 3133 3131 3129 3128
3145 3146 3146 3147 3149 3150 3150 3151 3151 3153 3155 3156 3157 3158 3159 3160 3161 3162 3163 3165 3166 3167 3168 3168 3169 3169 3169 3170 3171 3171 3172 3173 3173 3173 3173 3173 3173 3174 3173 3173 3173 3173 3173 3173 3173 3173 3173 3173 3173 3172 3172 3172 3172 3171 3170 3169 3168 3168 3167 3166 3165 3164 3162 3161 3159 3157 3155 3154 3152 3150 3148 3146 3145 3143 3141 3139 3137 3136 3135 3134 3132 3130 3128 3127 3125
3143 3144 3144 3146 3147 3148 3149 3149 3150 3152 3153 3155 3156 3157 3158 3159 3160 3161 3163 3164 3165 3166 3167 3167 3168 3168 3168 3169 3170 3171 3172 3172 3172 3172 3173 3173 3173 3173 3173 3172 3172 3173 3173 3173 3173 3173 3172 3172 3172 3172 3172 3172 3171 3171 3170 3168 3167 3167 3166 3165 3164 3162 3161 3160 3158 3156 3154 3152 3150 3148 3147 3145 3143 3141 3139 3137 3135 3133 3132 3131 3129 3128 3126 3124 3122
3140 3140 3142 3144 3146 3147 3147 3148 3149 3150 3152 3154 3155 3156 3158 3159 3160 3161 3162 3163 3164 3165 3166 3167 3167 3167 3168 3169 3169 3170 3171 3171 3172 3172 3172 3172 3172 3172 3172 3172 3172 3172 3173 3173 3173 3172 3172 3172 3171 3171 3171 3171 3170 3170 3169 3168 3167 3166 3164 3163 3162 3161 3159 3158 3156 3154 3152 3150 3149 3146 3145 3143 3141 3139 3137 3135 3133 3131 3130 3128 3126 3125 3123 3121 3119
3139 3139 3141 3143 3144 3146 3146 3147 3148 3149 3151 3153 3154 3156 3157 3158 3159 3160 3161 3162 3163 3164 3165 3166 3167 3167 3168 3169 3169 3170 3170 3171 3171 3171 3171 3172 3172 3172 3172 3172 3172 3172 3172 3172 3172 3172 3171 3171 3170 3170 3170 3170 3169 3169 3168 3167 3166 3165 3164 3162 3161 3160 3158 3156 3154 3152 3150 3149 3147 3145 3143 3141 3139 3137 3135 3133 3131 3129 3127 3125 3124 3122 3120 3118 3116
3138 3139 3140 3142 3143 3145 3146 3147 3148 3149 3150 3152 3154 3155 3156 3157 3158 3159 3160 3161 3162 3163 3164 3165 3166 3167 3168 3168 3169 3169 3170 3170 3170 3170 3171 3171 3171 3172 3172 3172 3172 3172 3172 3172 3171 3171 3171 3170 3170 3169 3169 3168 3168 3167 3167 3166 3165 3164 3162 3161 3160 3159 3157 3155 3153 3151 3149 3147 3145 3143 3141 3139 3137 3135 3133 3131 3129 3127 3125 3123 3121 3119 3117 3115 3113
3137 3138 3139 3141 3142 3144 3145 3146 3147 3148 3150 3152 3153 3154 3154 3156 3157 3158 3159 3160 3162 3163 3164 3165 3166 3167 3167 3168 3168 3169 3169 3170 3170 3170 3170 3171 3171 3171 3171 3171 3171 3171 3171 3171 3171 3170 3170 3169 3169 3168 3167 3167 3166 3166 3165 3164 3163 3162 3161 3160 3159 3157 3156 3154 3153 3151 3148 3145 3143 3141 3139 3137 3135 3133 3131 3129 3126 3125 3123 3121 3119 3117 3114 3112 3110
3135 3137 3138 3140 3142 3143 3144 3145 3145 3147 3150 3151 3151 3152 3153 3155 3156 3157 3158 3160 3161 3162 3163 3164 3165 3166 3167 3167 3168 3168 3169 3169 3169 3169 3170 3170 3171 3171 3171 3171 3171 3171 3170 3170 3170 3170 3169 3168 3167 3166 3166 3165 3164 3164 3163 3162 3161 3161 3159 3158 3157 3155 3154 3153 3151 3150 3148 3145 3142 3139 3136 3134 3133 3131 3129 3127 3125 3123 3120 3118 3116 3114 3112 3109 3107
3134 3136 3137 3139 3141 3142 3143 3144 3145 3148 3150 3150 3150 3151 3153 3154 3155 3156 3157 3158 3160 3161 3162 3163 3164 3165 3166 3167 3167 3168 3168 3168 3168 3169 3169 3169 3170 3170 3170 3170 3170 3170 3169 3169 3169 3168 3167 3166 3165 3165 3164 3163 3162 3162 3161 3160 3160 3159 3157 3156 3155 3154 3152 3151 3149 3148 3146 3145 3143 3140 3136 3132 3130 3129 3128 3125 3123 3121 3119 3117 3114 3112 3110 3107 3104
3133 3134 3136 3138 3139 3139 3141 3144 3146 3148 3148 3148 3149 3150 3152 3153 3153 3153 3155 3157 3158 3160 3162 3163 3164 3164 3165 3166 3167 3167 3167 3167 3168 3168 3168 3169 3169 3169 3169 3169 3169 3169 3168 3168 3167 3166 3165 3165 3164 3163 3162 3161 3161 3160 3159 3158 3157 3156 3155 3154 3153 3152 3150 3149 3147 3145 3144 3142 3141 3140 3138 3134 3131 3128 3126 3124 3121 3119 3117 3115 3113 3110 3107 3105 3102
3132 3133 3134 3136 3137 3138 3141 3142 3144 3146 3146 3146 3147 3149 3150 3151 3151 3153 3154 3156 3158 3159 3161 3162 3163 3163 3164 3165 3166 3166 3167 3167 3167 3168 3168 3168 3168 3168 3168 3168 3168 3167 3167 3166 3166 3165 3164 3163 3162 3161 3160 3160 3159 3158 3157 3156 3156 3155 3153 3152 3151 3149 3148 3146 3145 3143 3142 3140 3138 3137 3136 3134 3131 3128 3125 3123 3120 3117 3114 3112 3110 3107 3105 3102 3099
3129 3131 3133 3135 3135 3136 3138 3139 3141 3144 3145 3144 3145 3147 3149 3149 3151 3152 3154 3155 3157 3158 3160 3161 3162 3163 3164 3164 3165 3166 3166 3166 3167 3167 3167 3167 3167 3167 3167 3167 3166 3166 3165 3164 3164 3163 3162 3161 3161 3160 3159 3158 3157 3156 3155 3155 3154 3153 3152 3151 3149 3148 3146 3145 3143 3141 3140 3138 3136 3135 3133 3131 3128 3126 3123 3121 3118 3115 3112 3110 3107 3104 3102 3099 3096
Wind_Speed
4 5 7 6 5 3 5 6 6 6 6 5 5 5 6 6 7 8 9 10 11 11 12 11 11 11 11 11 12 12 12 13 14 14 15 14 14 13 13 12 11 10 9 8 8 7 6 7 7 7 6 6 6 6 6 6 6 7 7 8 8 8 8 8 9 11 13 14 15 15 14 14 14 14 13 12 12 12 13 13 14 14 14 14 14
5 5 7 7 6 5 5 6 6 6 5 4 4 3 4 5 5 6 7 8 9 10 11 11 10 10 10 10 10 11 11 12 13 13 14 14 13 13 13 12 12 11 11 10 9 7 7 7 7 7 6 6 6 6 6 6 6 7 8 8 8 8 8 8 9 11 12 13 13 13 13 13 13 12 12 11 11 12 12 13 13 13 13 13 14
5 6 7 8 8 6 6 6 7 5 4 4 3 3 3 3 4 5 6 7 8 9 10 10 10 9 9 9 9 9 10 10 11 12 12 12 12 12 13 13 12 12 12 11 9 7 7 7 7 7 7 6 6 6 6 6 6 7 8 8 8 8 8 8 9 10 11 12 12 12 13 13 12 11 11 11 10 11 11 12 12 12 12 13 14
4 6 8 8 9 8 6 7 8 6 4 4 4 3 2 2 2 3 5 6 7 9 10 10 10 9 8 8 8 8 8 8 9 10 11 11 11 12 12 12 13 13 13 11 10 8 7 7 7 7 7 7 7 6 6 6 7 8 8 9 8 8 8 8 9 10 10 10 10 10 11 11 11 10 10 10 10 10 10 11 11 12 12 13 13
4 6 8 9 10 9 8 8 8 7 5 5 5 3 2 1 1 3 4 6 7 8 9 9 9 9 8 7 7 7 7 7 7 8 9 10 10 10 11 11 12 13 13 12 11 9 8 7 7 7 7 7 7 7 7 7 8 9 9 8 8 8 9 9 9 9 9 9 9 8 8 8 8 8 8 9 9 9 9 9 10 11 11 12 12
5 6 9 11 11 11 10 10 10 8 6 6 5 4 3 2 1 2 4 5 7 8 8 9 9 8 7 6 6 6 6 6 6 7 7 8 8 9 9 10 11 12 12 12 12 10 9 8 8 7 7 8 8 8 8 8 9 9 9 9 9 9 9 9 8 8 8 8 7 7 7 6 7 7 8 8 7 8 8 8 9 9 10 11 12
5 6 8 11 13 13 12 12 11 10 8 7 6 5 4 3 3 3 4 5 6 7 8 8 9 8 6 5 5 5 5 5 5 5 6 6 7 7 8 9 9 10 11 12 12 11 10 9 8 8 8 8 8 8 8 9 9 9 9 9 9 9 9 9 8 7 7 6 6 5 5 5 5 6 7 6 6 6 7 8 9 10 11 11 12
6 6 8 10 12 15 15 14 13 12 10 9 7 6 6 5 4 4 4 5 5 6 7 8 8 7 6 5 4 4 4 4 4 4 5 5 6 6 7 7 8 9 10 10 11 11 10 9 9 8 8 8 8 8 8 8 9 9 9 9 9 9 9 8 7 6 6 5 5 4 4 3 4 5 5 5 5 6 6 8 9 10 11 12 12
6 7 8 9 11 14 16 16 15 13 12 10 9 8 7 7 6 5 5 5 5 5 5 6 7 7 6 4 4 3 4 4 4 4 4 4 5 6 6 6 7 7 8 9 10 10 10 9 9 8 8 8 7 7 8 8 9 9 9 9 9 9 8 7 6 5 5 5 4 3 3 3 3 4 4 4 5 5 6 8 9 10 11 12 13
6 7 8 9 10 13 16 17 16 15 14 12 11 10 9 8 7 6 5 5 5 5 4 5 7 7 6 4 3 3 4 4 3 3 3 4 4 5 5 5 5 6 6 7 8 9 9 9 9 8 7 7 7 7 8 8 8 8 8 8 8 7 7 6 5 4 4 4 3 3 3 3 3 3 3 4 4 6 7 8 9 10 11 12 13
6 7 8 9 9 12 16 17 17 16 15 14 13 11 11 9 8 7 6 5 5 5 4 4 6 7 6 4 3 3 3 4 3 3 3 3 4 4 4 4 4 4 5 6 7 7 8 8 8 7 7 6 7 7 7 8 8 7 7 7 6 6 5 4 4 3 2 2 2 3 3 3 3 4 4 5 5 6 8 9 10 11 12 12 14
5 6 7 8 8 10 14 17 17 16 16 15 14 13 12 11 9 8 7 6 6 5 4 4 6 6 6 4 3 3 3 3 3 3 3 3 3 4 4 4 4 4 4 4 6 6 7 7 7 7 6 6 6 6 7 7 7 7 6 5 5 5 4 3 2 1 1 2 3 4 4 5 5 6 7 7 7 8 9 10 11 12 13 14 15
5 6 6 7 8 9 11 15 17 17 17 16 15 14 13 12 10 9 8 7 7 6 4 3 5 6 6 5 4 3 3 3 3 3 2 3 3 3 4 3 3 3 3 3 4 5 5 6 7 6 5 5 6 6 6 7 6 6 5 4 3 3 3 2 1 2 3 4 4 5 6 7 8 9 9 10 10 11 12 12 13 14 15 16 16
5 6 6 7 8 8 10 13 17 18 18 17 16 15 14 12 11 10 8 8 7 6 3 3 5 6 6 6 4 4 4 3 3 3 2 2 3 3 4 3 3 3 3 3 3 3 4 5 6 5 5 5 5 5 6 6 5 4 4 4 3 2 1 1 2 3 4 4 5 6 7 8 9 10 11 12 13 14 14 15 15 16 17 18 18
6 5 5 6 7 8 10 13 17 18 18 17 16 15 14 13 12 11 9 8 7 5 4 3 6 7 7 6 5 4 5 4 4 3 2 2 3 3 3 3 3 3 2 2 2 2 3 4 4 5 4 4 4 4 5 4 4 4 4 5 5 2 1 2 3 4 5 5 6 7 8 9 10 11 12 13 14 16 16 17 18 19 19 20 20
6 4 3 5 6 8 10 14 17 19 18 17 16 16 15 14 13 12 10 8 7 5 4 4 6 7 7 6 6 5 5 5 4 4 3 2 2 3 3 3 3 3 2 2 2 1 1 3 3 4 4 3 3 3 3 3 3 3 4 4 5 3 2 3 4 4 5 6 7 8 8 10 11 12 13 14 16 17 18 19 20 20 21 21 21
5 4 4 6 7 8 10 13 16 18 18 17 17 16 15 15 14 12 10 8 7 5 4 4 6 7 7 7 6 6 6 5 4 4 4 3 3 4 4 3 3 3 2 2 1 1 0 1 2 3 3 3 2 2 2 2 2 3 3 3 4 4 4 4 5 6 6 7 8 9 10 11 13 14 15 17 18 19 20 21 22 22 22 22 23
6 5 5 6 7 7 9 11 13 15 16 17 17 16 16 15 14 12 10 8 6 5 4 4 6 7 7 8 7 6 7 6 5 5 5 4 4 5 5 4 3 3 2 2 2 2 1 1 1 2 2 2 2 2 2 3 3 3 3 4 5 5 5 6 7 8 9 9 10 11 12 14 15 16 18 19 20 21 22 23 24 24 24 24 25
7 6 5 6 6 7 8 10 12 14 15 16 16 15 15 14 12 11 9 8 6 5 5 5 7 8 8 8 8 7 7 7 6 6 6 5 5 5 6 6 5 4 3 2 2 2 2 2 2 2 3 3 3 3 4 4 5 5 5 6 7 8 8 9 9 11 11 13 14 14 15 16 17 18 19 21 22 22 23 24 25 25 26 26 26
8 7 6 6 6 7 9 10 12 14 15 15 15 15 14 13 11 10 9 8 7 5 5 6 8 8 9 9 8 8 8 8 7 7 7 6 6 6 7 7 6 5 4 3 3 3 3 3 3 3 4 4 4 5 5 6 7 7 7 8 8 10 11 11 12 13 14 15 16 17 18 19 20 21 22 22 23 23 23 24 25 26 26 26 26
7 7 6 7 7 8 10 12 13 14 15 15 15 14 13 12 11 10 9 8 7 6 6 7 9 9 9 9 9 9 9 8 8 8 7 7 7 7 8 9 8 6 6 5 5 4 4 4 4 5 5 6 6 6 7 8 8 9 9 10 10 11 13 14 15 15 16 17 18 19 20 21 22 23 23 23 23 23 24 25 26 26 26 26 26
7 7 8 8 8 10 12 13 14 15 15 15 14 13 12 12 11 10 10 9 7 6 7 9 9 9 9 10 10 10 9 9 8 8 8 8 7 8 9 9 9 8 6 6 6 6 5 5 5 5 6 7 7 8 9 9 10 11 11 12 12 13 15 16 17 18 18 19 19 20 22 23 24 24 24 24 24 24 24 25 26 26 26 26 26
7 8 8 8 9 11 13 15 15 15 14 13 12 12 12 12 12 11 10 9 7 7 8 10 10 10 10 9 10 10 10 9 9 9 9 9 8 7 8 9 10 9 8 7 7 7 7 7 6 6 7 7 8 9 10 11 12 13 13 14 14 15 16 17 19 20 20 20 21 22 23 24 25 26 25 25 25 25 25 25 26 26 26 26 27
7 9 9 8 9 11 14 14 13 13 12 12 12 12 13 13 12 11 10 9 8 8 10 10 10 10 10 10 9 10 10 10 10 10 9 9 7 7 7 8 9 9 8 8 7 7 8 8 8 8 8 8 8 9 10 11 12 13 15 15 16 17 17 18 19 20 21 21 22 23 24 25 25 26 26 26 25 25 25 25 26 26 26 26 26
8 9 8 7 8 11 12 11 11 11 11 11 12 13 13 12 12 11 10 9 8 9 11 11 11 11 10 10 9 9 10 10 10 10 9 8 7 6 6 7 8 8 8 8 8 7 8 8 9 9 9 9 9 10 10 11 12 13 15 16 16 17 17 18 19 19 20 21 22 23 24 25 25 25 25 25 25 25 25 25 25 25 25 26 26
10 10 9 8 10 10 10 10 10 10 11 12 12 12 11 12 11 11 10 9 10 10 11 11 11 11 10 9 9 9 10 10 10 10 8 7 7 6 6 5 6 7 7 6 7 7 7 8 9 9 9 9 10 10 11 11 12 13 14 15 16 16 17 18 19 19 20 21 22 24 25 25 25 24 24 25 25 25 25 24 22 22 23 24 25
9 10 10 10 12 11 11 11 11 11 11 10 10 10 10 11 12 12 11 11 11 11 11 12 12 11 9 9 9 9 9 9 9 8 8 7 7 7 6 4 5 6 6 5 5 6 6 7 8 8 8 8 9 10 10 11 11 12 13 14 16 17 17 18 19 20 21 22 23 24 25 25 24 24 24 25 25 24 24 23 21 20 22 23 23
9 11 11 12 12 12 12 13 12 12 11 9 9 9 10 10 11 11 11 12 12 11 11 12 11 10 8 8 8 8 8 8 8 8 8 7 7 7 6 4 4 5 6 5 4 4 4 5 6 7 7 7 8 8 9 10 11 12 13 14 16 16 17 18 19 20 21 22 23 24 24 24 24 24 25 25 25 24 24 23 20 18 21 23 23
10 11 12 13 13 13 14 14 13 12 11 10 9 8 9 9 9 10 11 12 12 11 12 12 10 9 9 8 8 7 7 7 7 8 8 7 7 7 6 5 4 5 6 6 5 4 4 4 5 6 7 7 8 8 9 10 11 11 12 13 14 15 16 18 19 20 20 21 22 22 23 23 24 24 24 24 24 24 24 23 21 19 20 21 21
12 13 13 13 12 13 14 14 13 12 11 9 8 7 8 8 9 10 11 12 12 12 12 12 11 10 9 8 7 6 6 6 6 7 7 7 6 6 6 5 4 4 5 6 5 5 4 4 5 6 6 7 8 9 9 10 11 12 12 13 14 15 15 16 17 18 19 20 21 21 22 23 23 22 22 22 22 22 23 23 22 21 21 21 21
13 14 13 13 12 13 14 13 11 10 10 8 7 7 7 8 9 11 12 13 13 13 13 12 11 10 8 7 6 5 5 5 5 5 5 6 5 5 5 5 4 4 4 4 4 5 5 5 5 6 7 7 8 9 9 10 11 12 12 13 13 14 14 15 17 18 18 19 19 20 21 21 21 21 20 20 20 21 22 23 22 22 22 22 23
13 14 14 13 14 14 12 11 10 10 10 9 8 8 8 9 11 12 14 14 13 13 13 11 10 9 8 6 5 6 5 4 4 3 4 5 4 3 3 3 3 3 3 3 3 3 4 5 6 6 7 7 8 9 10 11 11 11 11 11 12 13 14 15 16 16 17 17 18 19 20 21 22 21 21 21 20 21 22 23 23 23 23 22 22
12 14 15 15 15 14 13 11 11 11 10 10 9 8 9 11 12 14 15 15 14 13 12 11 10 9 8 7 7 6 4 3 3 3 2 2 2 2 2 1 2 3 3 4 4 4 4 5 6 6 7 7 8 9 9 9 9 8 9 10 12 14 15 15 16 16 17 17 19 20 21 22 22 23 23 22 21 21 22 23 24 25 25 23 21
14 15 15 16 16 15 14 14 13 12 10 10 9 9 11 13 14 15 15 14 13 12 11 11 11 9 8 7 7 5 3 2 3 2 1 1 1 2 2 2 3 4 5 5 5 5 5 5 6 6 6 7 7 7 7 7 8 8 10 11 13 15 15 16 17 17 18 19 20 21 22 22 23 23 24 24 23 23 23 24 26 27 26 24 22
16 15 16 17 16 16 16 16 14 12 11 10 9 10 13 14 15 16 15 13 12 12 12 12 11 9 8 7 6 4 2 1 1 2 1 1 2 2 3 4 5 5 6 6 6 6 6 6 6 5 5 5 5 5 6 7 9 10 12 13 15 15 16 17 18 18 19 20 21 22 23 23 24 24 24 24 25 25 25 26 27 28 28 27 25
16 16 17 16 16 16 17 16 15 13 12 11 10 12 14 15 16 16 15 13 12 12 12 12 11 9 8 7 6 4 2 1 1 2 1 2 2 3 4 5 6 7 7 7 6 6 6 6 5 5 4 3 3 4 5 8 10 11 12 13 14 15 16 17 18 19 19 20 22 23 24 25 25 25 25 25 26 27 27 28 29 30 30 29 28
18 17 17 16 16 16 16 15 14 13 13 12 12 13 14 14 15 15 14 13 12 12 12 12 10 9 8 7 6 5 3 2 2 2 2 2 3 4 4 5 6 7 7 7 6 6 5 4 4 4 3 3 3 4 6 9 10 11 11 12 13 14 15 16 18 19 21 22 23 25 26 26 27 27 27 27 27 28 29 30 31 31 32 31 31
21 20 18 17 18 17 17 16 14 14 14 14 14 14 15 14 15 15 14 13 13 13 12 11 11 10 9 8 7 5 3 3 3 3 3 3 3 4 5 6 6 7 7 7 6 5 5 5 4 3 3 3 3 5 8 9 10 10 11 11 12 14 15 17 19 21 23 24 25 26 27 28 28 28 28 28 28 28 29 31 32 33 33 33 33
22 21 19 18 20 20 19 18 17 16 15 15 15 15 15 15 15 15 14 14 14 13 12 12 11 10 9 8 6 5 4 4 4 4 4 4 5 5 6 6 6 6 6 6 6 5 5 4 3 2 2 3 4 6 8 10 10 11 12 12 13 15 17 19 21 22 24 25 26 27 28 28 29 29 29 29 29 28 28 29 31 32 33 33 33
23 22 21 20 22 22 21 20 19 17 15 15 15 15 15 15 14 15 15 14 14 13 13 12 12 10 9 8 6 6 5 4 5 4 4 5 5 6 6 6 6 5 5 5 5 5 5 4 3 2 2 3 4 6 8 10 10 11 12 13 15 16 18 20 21 23 24 25 26 27 28 28 29 29 29 29 29 28 28 28 29 30 31 31 32
23 22 22 21 23 23 21 20 18 15 15 16 16 15 15 14 15 15 15 15 15 14 13 12 11 10 9 8 7 6 5 5 5 4 4 5 5 6 6 5 4 4 4 4 5 5 5 5 5 4 4 4 5 6 8 9 10 10 12 14 16 17 19 20 22 24 25 26 27 28 28 29 29 29 29 29 29 29 29 28 29 29 30 30 31
23 23 23 23 24 23 22 20 18 16 17 17 17 16 16 16 16 16 15 15 15 15 14 13 11 11 10 8 7 5 5 5 5 4 5 5 5 5 5 4 3 3 3 4 5 6 6 7 7 7 7 7 7 8 9 10 11 12 13 15 17 18 19 21 22 24 25 26 27 28 28 29 29 29 29 29 29 30 30 30 30 30 31 31 31
24 23 23 24 24 23 21 20 18 18 19 19 18 18 17 17 17 16 15 16 17 16 15 13 12 11 10 8 7 5 5 6 5 5 5 5 5 5 5 4 4 4 4 5 6 7 8 9 9 9 9 9 9 9 9 10 11 12 14 16 18 19 20 21 22 24 25 26 27 28 29 29 29 29 30 30 31 31 31 31 31 31 31 32 32
24 24 24 24 23 21 20 19 19 20 21 20 19 18 17 17 18 17 15 16 17 16 15 14 13 11 9 8 6 5 6 6 6 6 6 6 6 6 5 5 5 5 6 7 8 9 10 11 11 11 11 11 11 10 10 11 12 13 15 17 18 19 20 22 23 24 25 26 27 28 29 29 29 30 30 30 31 31 31 31 32 32 32 33 33
25 25 24 23 22 21 19 20 21 23 22 19 17 16 15 16 18 16 15 16 15 15 15 14 13 11 8 7 6 6 6 7 7 7 6 6 6 7 6 6 6 7 8 9 9 10 11 12 12 13 13 13 12 12 12 12 13 15 16 18 18 19 20 21 22 24 25 27 28 28 29 29 29 29 30 31 31 31 31 31 32 33 33 33 34
26 25 24 23 22 21 20 21 23 24 20 17 16 15 15 16 16 15 14 14 14 14 15 13 12 10 7 7 7 7 7 7 7 7 7 7 7 7 7 8 8 8 9 10 11 12 13 13 13 14 14 14 14 14 14 14 15 16 17 18 19 19 20 21 22 23 24 26 28 29 29 29 29 30 30 31 31 31 31 32 32 33 33 34 34
26 25 24 24 22 21 21 22 24 22 18 16 16 15 16 16 15 15 14 14 14 14 14 13 11 9 8 8 8 7 7 7 8 8 8 7 7 8 8 9 9 10 11 12 13 14 14 14 14 14 14 15 15 15 15 16 16 17 18 18 19 20 21 22 22 23 23 24 26 28 30 29 29 29 30 30 31 32 32 33 33 33 34 35 35
26 25 25 24 22 22 22 23 21 17 15 16 16 16 16 15 16 17 17 16 15 14 14 13 11 9 8 8 8 7 6 7 7 8 8 8 8 8 9 10 11 12 13 14 15 15 15 15 15 15 15 16 16 16 16 16 17 17 18 18 19 20 21 22 23 24 24 23 22 23 26 29 29 29 29 30 30 31 31 32 33 33 33 34 35
26 25 25 23 23 23 22 21 18 15 16 16 15 16 16 17 18 18 17 16 14 14 13 13 11 10 10 8 8 7 6 7 8 8 8 8 9 10 10 12 13 14 15 15 16 16 16 17 16 16 16 16 16 16 16 16 17 17 18 19 20 21 23 24 25 25 25 24 22 20 20 23 26 28 28 30 31 31 31 31 32 32 33 33 34
26 24 24 23 23 23 20 19 18 16 18 18 16 17 17 17 17 17 16 15 14 14 13 13 12 12 11 9 9 8 7 8 9 9 9 10 10 11 12 13 14 15 16 17 17 17 18 18 17 17 17 16 16 15 16 16 17 18 19 20 21 23 23 24 24 24 24 23 22 21 20 21 24 26 28 29 31 32 32 32 32 32 33 33 34
26 24 23 23 23 22 20 20 19 17 18 19 18 18 18 17 16 17 17 15 14 14 14 13 13 12 13 12 11 10 9 10 10 11 12 12 13 13 14 15 16 16 17 17 18 18 18 18 18 17 17 16 15 15 16 16 17 18 19 21 22 23 23 23 23 23 22 22 22 22 23 24 26 27 28 29 30 31 32 32 33 33 33 33 34
Wind_Direction
283 228 222 217 217 190 154 154 156 146 128 118 114 96 83 72 61 50 42 37 33 32 32 34 35 37 38 37 37 36 37 39 42 43 43 42 41 39 38 37 36 35 36 41 53 66 71 66 61 64 72 80 85 84 82 82 79 75 73 70 71 75 82 90 95 99 103 105 106 106 102 97 92 86 81 76 73 72 71 67 63 58 53 49 44
281 242 228 219 224 207 169 165 168 157 137 134 135 108 88 72 58 45 38 33 29 27 27 29 31 34 35 35 33 33 34 36 39 42 44 43 41 38 38 36 34 33 33 36 45 53 58 60 58 59 65 73 77 78 77 76 74 71 70 68 70 76 84 91 96 100 103 104 105 105 101 96 90 85 80 75 72 72 70 65 60 55 49 44 40
271 250 236 223 225 213 184 177 178 169 150 155 161 132 100 73 54 38 29 26 24 22 21 22 25 29 32 32 30 29 30 33 36 40 44 44 41 38 37 35 34 33 33 36 42 48 51 57 57 58 63 69 73 74 74 72 73 72 71 71 74 79 86 91 95 101 103 104 106 105 102 98 92 86 80 75 74 72 69 63 55 49 44 39 35
267 245 240 229 224 216 199 190 188 183 170 173 181 167 130 83 43 23 16 16 17 16 16 16 18 24 26 28 26 26 25 29 33 37 42 44 43 40 37 36 34 34 35 38 42 47 52 58 59 60 64 71 76 75 76 75 75 75 75 77 79 83 87 89 93 98 102 104 105 105 102 100 96 88 81 76 75 72 67 60 51 43 37 33 29
262 240 232 227 224 219 210 203 198 194 194 187 191 192 175 169 360 359 358 5 10 12 13 11 11 16 20 22 22 22 21 24 29 33 38 41 43 41 39 38 36 36 37 39 42 47 53 60 61 61 66 73 78 79 80 80 80 79 79 82 85 85 85 87 88 92 96 99 98 97 96 94 93 88 80 77 74 70 63 56 48 39 33 28 23
265 244 226 223 222 220 217 213 208 206 209 199 200 205 204 226 278 325 340 351 1 8 12 8 5 7 12 16 17 19 15 18 24 29 33 36 40 40 39 39 39 38 37 39 41 46 52 59 62 62 66 72 78 82 83 84 85 85 85 86 87 85 82 81 81 84 88 91 91 88 87 82 80 79 74 72 71 63 54 47 41 32 25 22 17
272 247 229 224 220 219 218 217 215 214 216 210 209 213 221 237 262 295 317 336 348 1 9 8 1 358 3 9 11 14 12 13 17 23 26 29 34 37 38 39 40 40 39 39 40 44 49 56 61 63 67 73 79 84 87 88 89 90 91 89 86 82 76 73 72 77 79 80 81 79 78 75 72 71 69 68 64 54 42 31 25 19 14 12 8
283 257 244 234 224 219 218 219 219 219 220 218 218 221 229 241 257 278 298 318 335 350 3 7 359 350 351 359 2 6 6 5 6 12 18 21 27 32 35 37 40 42 42 41 41 44 48 54 60 65 70 76 81 86 90 91 93 93 93 90 84 78 71 69 69 70 69 67 65 64 61 59 58 59 61 58 49 39 29 18 10 6 3 1 359
292 272 259 247 234 223 219 219 220 221 222 223 226 228 233 242 254 268 286 303 319 336 353 1 357 345 338 344 352 356 358 355 355 359 10 16 21 27 31 35 40 44 45 45 45 46 50 55 60 67 74 81 86 90 93 94 95 96 94 91 84 76 70 68 68 66 60 54 46 45 40 31 31 38 43 41 30 15 8 3 358 355 353 351 349
298 283 270 258 243 228 222 220 220 222 223 227 231 234 238 243 252 261 274 289 303 316 336 352 354 342 328 330 340 347 350 344 342 347 359 8 14 19 23 31 40 45 49 51 50 50 52 57 62 68 77 85 90 92 94 96 98 99 97 94 87 77 72 68 63 59 52 42 27 23 11 360 1 2 5 8 359 351 347 347 345 344 343 342 342
300 287 276 264 250 234 225 222 222 222 225 229 234 238 241 244 248 255 264 277 290 299 314 340 350 341 324 321 330 339 340 332 329 337 351 360 6 11 15 22 33 42 50 56 59 56 56 59 64 71 79 88 93 95 97 100 102 101 100 98 91 80 72 65 54 47 33 13 353 343 334 326 324 321 323 328 328 330 331 333 333 333 334 334 335
305 290 279 267 252 239 229 225 224 224 226 229 234 239 242 244 245 250 258 268 279 286 296 330 347 338 320 310 312 321 323 316 318 328 340 354 359 1 8 15 20 32 46 57 65 65 62 62 65 73 84 95 97 101 104 105 106 103 104 102 94 83 76 70 53 9 318 315 312 307 307 305 303 305 307 312 315 319 321 323 325 326 327 327 327
313 296 284 271 254 243 234 229 227 226 227 229 233 238 241 242 244 249 254 262 272 277 283 323 342 332 313 299 293 297 296 296 303 314 329 346 350 353 359 5 6 16 35 49 67 72 71 69 69 75 87 99 103 107 110 110 109 108 110 109 101 88 92 111 169 236 264 280 288 291 292 294 297 300 304 309 311 313 315 317 320 321 321 321 321
315 303 295 278 261 249 238 231 228 227 226 228 231 236 240 241 245 249 252 260 268 270 275 316 334 325 308 294 284 279 277 280 289 296 315 335 339 346 349 349 355 6 22 34 55 75 81 81 78 79 87 99 106 110 112 113 113 116 124 133 139 127 136 186 211 234 249 263 273 282 285 287 292 297 302 306 310 311 312 314 316 317 317 316 315
315 311 298 273 258 247 238 229 225 225 224 226 230 234 238 242 247 250 253 260 265 265 273 310 327 319 304 289 277 273 274 276 284 289 299 323 329 334 338 336 343 356 9 22 32 61 88 93 91 88 90 97 108 115 117 121 126 134 143 155 170 183 233 240 237 246 251 256 262 271 278 280 286 294 298 303 307 310 311 312 313 313 312 311 311
315 317 279 245 237 232 229 225 222 222 222 224 229 234 239 245 249 252 254 259 262 264 276 305 320 311 296 284 272 269 273 276 280 283 289 299 314 316 320 326 330 339 352 8 11 21 88 102 105 103 101 104 111 123 133 141 153 163 169 177 189 206 237 250 253 262 266 268 270 275 279 283 289 294 297 302 305 308 309 309 309 309 308 307 307
311 294 246 223 222 222 222 222 220 221 223 226 230 235 241 247 251 252 255 258 259 264 276 296 308 299 286 275 265 262 265 268 271 272 278 284 294 299 301 309 315 319 328 338 338 332 358 120 120 127 126 127 136 148 169 182 189 200 209 214 219 226 238 253 265 274 279 283 285 287 290 293 296 299 302 305 306 307 307 307 305 305 304 304 305
299 271 244 226 220 219 221 220 220 222 225 229 232 235 241 247 250 252 254 256 257 262 269 283 292 287 276 267 259 257 259 259 263 263 267 276 284 291 293 293 295 296 301 310 309 304 277 223 171 165 170 175 183 197 220 235 242 245 256 263 266 268 267 272 281 285 289 291 293 294 296 298 300 302 303 304 304 305 305 305 304 304 303 304 305
292 278 263 240 225 219 219 215 216 220 225 230 234 237 243 248 251 253 255 255 257 258 259 272 279 274 267 262 257 256 257 259 261 263 262 266 275 283 289 289 284 281 277 285 293 294 286 267 247 225 220 215 215 228 238 249 258 263 270 277 285 290 293 294 295 296 298 299 299 299 300 300 300 300 300 300 301 303 304 304 303 303 304 305 307
298 297 280 247 229 214 209 208 211 216 223 229 234 239 245 250 253 255 256 257 257 253 254 265 268 265 262 259 256 256 258 263 266 266 265 265 272 278 282 284 282 277 271 266 268 279 283 280 274 266 258 248 244 249 253 259 265 271 276 280 287 292 296 297 297 298 299 300 301 301 302 301 300 300 301 301 303 304 304 304 303 303 304 306 307
301 297 274 241 216 202 200 203 208 214 220 226 232 239 245 250 252 254 255 256 253 246 250 258 261 259 258 257 256 259 262 267 272 272 271 272 276 280 282 282 281 277 273 268 262 263 268 274 279 280 279 274 272 274 275 278 281 284 286 289 293 296 299 300 301 301 301 301 302 303 304 304 304 304 303 304 304 304 304 304 304 304 306 308 308
287 276 254 229 204 197 200 202 207 213 219 225 230 237 243 247 247 248 248 247 244 240 246 253 255 256 256 258 260 265 269 272 276 277 277 279 279 282 284 281 279 275 271 270 266 262 260 264 272 278 283 285 288 291 294 297 298 298 297 297 298 300 301 303 304 305 305 306 307 308 308 308 306 305 304 304 304 305 305 305 305 306 307 308 307
265 258 241 222 205 199 202 204 208 213 220 225 230 235 238 241 241 240 240 239 237 235 243 249 252 255 256 258 263 269 273 275 278 280 283 285 286 288 288 282 276 272 266 263 262 261 263 263 265 270 277 283 290 296 301 303 304 303 303 302 302 301 302 303 304 305 307 310 311 311 310 309 307 305 304 305 305 306 306 306 306 306 307 307 307
261 257 238 219 210 207 205 206 210 215 221 227 231 234 236 238 238 237 237 234 231 233 241 247 251 253 254 257 263 269 273 277 282 284 287 290 292 293 293 287 278 271 264 258 256 257 263 267 267 269 271 276 283 288 294 298 300 302 302 303 303 302 303 303 303 305 307 309 310 309 308 307 306 305 304 305 305 305 306 305 306 307 308 308 307
269 265 245 217 208 211 207 204 210 215 223 229 234 236 238 239 240 240 236 230 227 233 240 245 249 250 252 256 260 266 272 279 286 287 290 291 290 291 293 292 283 274 264 255 251 252 258 265 268 271 275 278 280 283 286 290 294 297 299 301 302 303 305 305 305 306 307 308 307 306 306 305 305 304 303 303 302 303 305 306 309 311 311 309 307
263 267 248 217 203 203 198 198 203 210 220 228 234 238 241 241 241 239 232 225 224 231 239 243 246 248 251 256 258 265 273 280 286 288 290 290 288 286 285 288 287 279 272 262 254 253 256 262 269 273 277 280 282 284 286 288 292 296 299 301 304 306 307 308 309 309 309 308 307 306 305 304 303 302 301 301 303 306 307 308 312 313 310 307 308
259 262 245 218 201 191 187 192 196 202 212 221 229 234 236 239 238 233 225 220 222 228 235 240 243 248 253 256 261 268 276 282 286 289 288 288 287 283 280 283 287 286 285 278 267 261 261 266 272 275 278 281 283 285 286 289 294 298 302 304 306 308 309 310 310 309 308 307 306 304 303 303 303 303 303 304 307 310 309 310 314 315 311 309 310
248 249 235 215 197 183 184 190 190 193 200 207 218 225 229 234 234 229 222 219 222 227 232 238 243 248 251 254 261 268 276 286 289 289 285 282 282 280 282 287 290 297 300 296 290 284 281 283 283 281 281 282 284 286 288 292 296 300 302 304 305 306 307 306 305 304 303 302 302 301 302 304 305 307 310 312 314 314 311 312 317 320 316 313 315
229 229 222 208 189 182 186 186 187 189 192 198 207 218 224 228 229 224 219 221 223 226 231 237 240 242 245 248 256 265 275 286 288 287 285 283 280 282 289 296 300 304 308 309 309 309 304 300 295 291 289 290 291 290 292 295 296 298 298 300 300 299 298 297 297 298 299 300 302 305 307 310 312 315 318 319 319 317 314 315 319 322 319 316 318
217 215 212 204 189 183 185 184 187 192 194 200 206 212 220 221 221 216 217 221 221 223 228 232 235 237 240 246 254 264 273 275 275 280 288 292 290 295 304 311 315 308 308 310 311 311 308 302 295 292 293 294 295 294 296 297 297 297 297 296 294 293 294 296 299 302 304 308 310 313 314 315 317 319 319 319 319 317 315 316 318 320 319 318 320
218 212 208 203 195 186 184 187 194 200 204 212 213 210 217 217 211 211 216 219 218 221 225 229 233 234 236 239 243 248 257 262 263 275 298 308 306 313 322 321 317 310 304 302 303 304 301 298 294 295 296 296 296 296 295 293 291 291 292 293 294 297 302 307 310 312 314 315 317 318 318 319 319 319 317 317 317 316 314 314 315 316 316 318 320
221 214 207 201 195 189 187 192 201 209 214 218 216 209 213 212 205 207 214 217 217 220 224 229 232 231 230 225 226 236 244 264 281 295 327 328 321 330 336 324 311 304 293 279 275 276 277 281 284 286 287 288 287 284 283 283 284 287 293 299 305 311 316 318 320 321 321 321 322 322 322 322 321 320 319 317 316 315 314 313 314 314 314 316 316
221 213 203 197 194 192 192 198 206 212 216 218 216 209 209 206 204 208 214 217 217 220 224 228 231 230 224 220 226 234 241 281 300 311 350 339 320 326 327 315 288 272 265 261 260 259 261 267 271 274 276 280 282 282 283 283 286 294 305 314 318 322 325 327 328 329 329 328 327 326 324 323 322 322 321 319 317 314 314 313 314 314 315 314 313
217 212 203 200 198 197 199 204 208 213 216 217 217 210 206 205 206 212 217 218 218 219 221 223 228 227 220 224 230 229 244 295 303 305 321 302 304 313 303 292 277 268 267 273 281 283 283 283 287 291 294 297 295 295 296 293 300 313 322 326 328 331 332 333 334 334 333 331 329 327 324 322 321 321 320 319 317 315 313 312 312 313 314 313 311
215 213 209 207 206 205 205 208 212 217 219 218 217 210 205 207 211 216 219 219 218 218 218 222 227 227 225 230 228 223 239 288 325 327 320 294 300 305 288 281 278 280 286 291 298 301 303 306 308 311 312 310 305 304 304 304 313 323 329 331 334 335 335 336 336 335 333 330 327 324 322 320 318 318 317 316 315 314 313 311 312 312 312 312 310
213 213 213 211 211 212 211 214 218 225 226 221 216 211 209 211 215 219 221 219 217 216 217 223 228 230 227 220 212 202 184 202 334 352 345 312 311 305 287 282 284 288 294 298 303 306 311 316 322 327 327 320 312 306 304 307 315 323 328 332 335 336 336 336 334 332 330 327 324 321 318 316 315 314 313 313 312 312 312 311 311 310 310 309 308
213 217 217 211 211 216 217 218 221 227 229 223 217 215 213 214 218 222 223 220 217 218 221 226 232 228 215 201 197 194 186 231 298 323 339 337 327 312 297 291 291 294 298 300 302 309 320 333 346 351 348 336 317 309 306 308 317 324 329 334 336 336 335 333 332 330 328 325 322 319 316 315 313 312 311 311 310 310 310 309 309 308 307 306 305
214 219 220 214 212 217 221 222 225 228 228 223 218 216 215 217 221 223 224 220 217 220 223 226 229 219 202 193 195 200 214 254 280 295 316 327 317 308 299 294 294 297 300 304 312 325 344 2 14 11 352 334 311 306 307 311 321 328 332 336 336 336 335 333 332 330 328 325 322 319 316 315 313 312 311 310 309 308 308 307 307 306 305 304 303
216 218 221 218 213 215 221 226 227 226 225 222 218 216 217 220 222 225 224 220 218 219 221 223 222 212 199 196 200 210 231 260 279 289 304 310 309 306 301 300 302 304 306 313 327 340 354 9 19 8 329 312 300 300 303 309 320 327 330 334 335 336 335 333 331 329 327 325 322 320 317 316 315 313 312 311 310 309 308 306 305 304 304 303 302
218 220 222 218 214 216 222 229 230 225 221 221 218 216 219 221 223 226 225 221 219 216 217 218 214 208 206 207 210 221 239 273 291 294 302 304 306 306 304 306 308 310 313 322 336 345 351 357 359 342 310 298 297 296 298 304 312 320 325 329 332 333 333 332 330 328 326 324 323 321 319 318 317 316 315 314 313 312 310 309 307 305 305 305 305
220 222 224 219 216 219 224 231 234 228 222 219 216 216 220 222 225 226 223 220 215 211 214 215 209 209 214 215 220 230 254 288 295 296 302 303 305 309 311 315 318 320 323 329 338 342 342 343 339 329 319 308 303 299 298 302 307 314 321 327 329 330 332 331 328 326 325 324 323 322 320 319 318 317 316 315 314 312 312 311 310 309 308 308 308
220 222 223 219 218 221 226 231 230 223 218 216 212 212 216 219 222 222 218 214 209 208 210 209 208 212 215 218 227 239 268 285 289 296 301 306 311 315 317 321 326 328 329 330 334 335 333 332 327 321 317 312 307 304 302 302 306 313 320 325 326 327 328 327 325 324 324 324 322 320 319 318 317 316 315 315 314 313 313 312 312 311 310 310 309
221 221 220 219 218 221 225 227 224 215 212 212 210 210 213 216 220 218 212 208 206 205 206 206 209 214 214 218 229 251 282 287 291 299 303 310 315 318 316 316 323 324 323 324 327 328 326 323 320 315 312 308 306 303 300 300 304 311 317 321 322 323 323 323 323 323 322 321 320 318 317 316 316 316 315 314 314 314 314 313 312 312 312 311 311
223 221 219 218 217 219 222 223 219 212 209 210 209 211 214 217 219 215 210 209 205 203 205 206 209 213 216 221 232 261 283 287 294 300 301 308 312 313 313 313 318 317 316 320 322 323 321 317 315 311 307 304 303 302 299 299 301 306 312 316 318 319 320 321 323 322 320 318 316 315 315 315 315 314 314 313 314 314 315 315 314 314 314 314 313
224 224 221 218 217 219 221 219 215 212 210 210 210 214 217 221 221 215 211 211 207 205 207 207 209 214 220 227 244 270 282 288 293 294 294 300 305 306 308 310 313 313 314 317 318 317 314 312 309 307 304 302 302 302 300 299 301 305 309 312 313 314 316 319 320 318 316 315 315 314 314 314 314 314 315 315 316 317 317 317 316 315 315 314 313
224 225 223 221 220 221 220 218 217 213 211 213 215 216 219 222 222 218 213 209 205 207 210 209 209 215 222 233 259 280 289 291 289 287 288 294 301 305 306 309 312 313 314 314 314 312 310 308 306 304 303 302 302 302 301 301 301 303 306 309 311 312 314 315 315 315 315 316 316 315 315 315 315 316 317 317 317 318 318 317 316 315 314 313 312
223 225 223 222 222 220 219 221 221 215 209 214 218 219 221 219 215 213 208 202 202 207 210 208 206 210 218 235 263 285 292 291 288 285 287 290 297 303 305 309 312 312 313 312 312 310 308 306 304 303 303 303 304 304 302 301 299 301 305 308 310 310 312 312 312 313 314 315 317 317 316 315 315 316 316 316 317 317 317 316 316 315 314 313 312
222 223 223 223 221 218 220 225 225 217 210 215 219 222 222 216 210 207 202 200 204 209 210 207 205 208 219 238 264 284 290 290 290 288 289 292 296 302 306 309 310 310 310 310 310 308 307 305 304 303 304 305 305 304 301 300 301 304 306 308 309 310 311 312 312 313 314 315 315 316 315 314 315 316 316 316 315 315 315 314 314 313 312 312 311
222 222 222 221 221 222 224 230 231 221 215 218 219 220 217 213 212 205 200 203 207 211 211 208 210 215 226 248 271 281 288 295 298 298 297 298 300 303 306 307 308 307 307 307 307 307 305 304 303 304 305 305 304 302 301 303 305 307 309 310 311 312 313 314 315 315 315 315 315 313 311 311 313 315 316 317 317 316 316 315 315 315 314 313 312
223 223 221 220 224 228 228 228 223 215 218 218 213 215 216 215 214 205 202 208 212 213 212 211 215 220 229 253 275 280 286 295 298 298 298 299 301 303 304 304 304 303 304 305 305 304 302 302 303 304 304 303 303 303 305 307 309 311 312 313 314 315 316 317 317 316 316 317 318 318 317 316 317 318 318 318 317 316 317 317 318 318 317 316 315
223 222 218 219 226 231 228 224 216 211 221 220 209 211 215 214 209 204 206 212 214 212 214 217 220 224 233 251 271 280 284 288 290 293 295 297 300 301 301 300 300 302 303 304 302 301 301 301 303 303 302 302 304 306 309 311 312 313 313 314 315 316 316 316 315 316 317 319 321 323 324 324 324 322 320 319 318 318 319 319 320 320 319 318 317